Погода в Ясном

Россия / Сахалинская область     50°38′25″N   142°42′49″E
темп.,
°C
ветер,
м/с
пор.,
м/с
влажн.,
%
обл.,
%
осадки,
мм/ч
давл.,
гПа
погр.,
м
17 июня, чт
чт1723:00+10ююв410953 0.0 1008254
02:00+8юв389661 0.0 1008178
05:00+8юв389386 0.0 1008163
08:00+13ююв467177 0.0 1008207
11:00+21ю35487 0.0 1006512
14:00+27ю34370 0.0 10051156
17:00+28ююз33350 0.0 10041495
20:00+23зюз12635 0.0 100544
18 июня, пт
пт1823:00+14с119314 0.0 100819
02:00+12ссв1197100 0.0 100810
05:00+12с1197100 0.0 100810
08:00+16ссв118299 0.0 1009194
11:00+23зюз125470 0.0 1007870
14:00+27з134211 0.0 10051693
17:00+26ссз224537 0.0 10051327
20:00+21юз23666 0.0 1006396
19 июня, сб
сб1923:00+12ююв24978 0.0 1008128
02:00+9юв119617 0.0 100944
05:00+7юв11925 0.0 101023
08:00+10ю346013 0.0 1010399
11:00+17ю343666 0.0 10101085
14:00+22ю132548 0.0 10091850
17:00+22ю432744 0.0 10091821
20:00+18юз244894 0.0 1010350
20 июня, вс
вс2023:00+9всв11769 0.0 101210
02:00+7всв11840 0.0 101310
05:00+6ссв11850 0.0 101310
08:00+12ссз22570 0.0 1012271
11:00+19ссз35320 0.0 10111260
14:00+23св24274 0.0 10092328
17:00+23ссв332812 0.0 10082413
20:00+19св124720 0.0 100948
21 июня, пн
пн2123:00+11вюв116670 0.0 101112
02:00+9ююв22787 0.0 101147
05:00+7юв228632 0.0 101150
08:00+13ююв236299 0.0 1010211
11:00+21ю224157 0.0 1009684
14:00+25ююз34295 0.0 10072182
17:00+24зюз45285 0.0 10061795
20:00+19ююз2351100 0.0 100664